Temperature
7 5 5 5 6 7 7 6 6 6 7 7 6 6 7 7 6 6 6 6 7 7 7 7 7 7 7 7 7 7 7 7 7 7 7 7 7 7 7 7 7 7 7 8
5 5 6 7 7 7 6 6 5 6 7 7 6 6 6 6 6 6 6 6 6 6 6 7 7 7 7 7 7 7 7 7 7 7 6 7 7 7 7 7 7 7 7 7
5 6 6 6 6 6 6 5 5 6 6 6 5 5 6 6 6 6 6 6 6 5 5 6 6 6 6 6 6 6 6 6 6 6 6 6 6 6 6 6 7 7 7 7
5 5 6 6 6 6 5 6 6 6 5 4 5 4 5 5 5 5 5 5 5 5 5 5 5 6 6 6 6 6 6 6 6 6 5 5 5 5 5 6 6 6 6 6
4 5 5 5 5 6 5 6 5 5 4 3 4 4 4 4 5 4 4 4 5 5 5 5 5 5 5 5 5 5 5 5 5 5 5 5 5 5 5 5 5 6 6 6
4 5 5 5 5 5 5 5 4 3 3 4 4 4 4 3 4 4 4 4 4 4 4 4 4 4 5 5 5 5 5 5 5 5 5 5 4 4 4 4 5 5 5 5
4 4 5 5 5 5 4 3 3 3 3 3 4 4 4 4 4 4 3 3 4 4 4 4 4 4 4 4 4 4 4 4 4 4 4 4 4 4 4 4 4 4 5 5
3 3 4 4 4 4 3 3 3 3 3 3 3 3 4 4 4 4 4 3 3 3 3 3 3 3 3 3 3 3 4 4 4 4 4 4 4 4 4 4 4 4 4 4
2 3 4 4 4 4 3 2 3 2 1 2 3 3 3 4 3 3 2 2 2 3 3 3 3 3 3 3 3 3 3 4 4 4 3 3 3 3 3 3 3 3 3 3
2 2 3 3 4 4 3 2 1 1 2 3 3 2 3 3 3 2 1 2 2 2 2 2 2 2 3 3 3 3 3 3 3 3 3 3 3 3 3 3 3 3 3 3
2 1 2 2 2 2 3 2 1 1 1 2 2 3 3 2 2 1 1 2 2 2 2 2 2 2 2 2 2 2 2 2 3 3 3 3 3 2 2 2 2 2 2 2
1 0 0 1 2 2 2 2 1 1 1 0 1 2 3 2 2 1 1 2 2 2 2 2 2 2 2 2 2 2 2 2 2 2 2 2 2 2 2 2 2 2 2 2
1 -0 0 2 2 1 1 1 0 -0 -0 -0 0 2 3 2 1 2 2 2 2 1 1 1 1 1 1 1 1 1 1 1 1 1 2 2 2 2 2 2 2 1 1 2
1 -1 0 2 2 0 0 1 0 -0 -0 -0 0 1 2 2 1 1 1 1 1 1 1 1 1 1 1 1 1 1 1 1 1 1 1 1 1 1 1 1 1 1 1 1
0 -1 -1 -1 0 0 0 0 0 -0 -0 0 1 1 2 1 1 1 1 1 1 0 0 0 -0 -0 -0 0 0 1 0 0 0 0 0 1 1 1 1 1 1 1 0 0
-2 -1 -1 -1 0 0 0 0 0 0 0 0 1 1 2 1 1 1 1 0 0 0 -0 -0 -0 -0 -0 -0 -0 -0 -0 -0 -0 -0 -0 -0 0 0 0 0 0 0 -0 -0
-3 -2 -2 -1 -1 -1 0 0 -0 -0 -0 -0 0 1 0 -0 0 0 0 0 -0 -0 -1 -1 -1 -1 -1 -1 -1 -1 -1 -1 -1 -1 -1 -1 -0 -0 -0 -0 -0 -0 -1 -0
-3 -3 -3 -2 -2 -0 1 0 -0 -0 -0 -1 -0 -0 -0 -0 0 0 0 0 -0 -0 -1 -1 -1 -1 -1 -1 -1 -1 -1 -1 -1 -1 -1 -1 -1 -1 -1 -1 -1 -1 -1 -1
-3 -3 -3 -3 -2 -1 0 0 -1 -1 -1 -1 -1 -1 -1 -0 -1 -0 0 -0 -0 -1 -1 -1 -1 -1 -1 -1 -1 -1 -1 -1 -2 -2 -1 -2 -2 -1 -1 -1 -1 -1 -1 -1
-3 -4 -3 -3 -2 -0 1 -0 -0 -1 -1 -0 -1 -1 -2 -2 -2 -1 -0 -0 -1 -1 -1 -1 -1 -1 -1 -1 -2 -2 -2 -2 -2 -2 -2 -2 -2 -2 -2 -2 -2 -2 -1 -1
-4 -4 -4 -3 -3 -1 -0 -1 -0 -0 0 0 -0 -1 -2 -2 -1 -1 -1 -1 -1 -2 -2 -2 -2 -2 -2 -2 -2 -2 -2 -2 -2 -2 -2 -2 -2 -2 -2 -2 -2 -2 -2 -2
-3 -4 -4 -4 -3 -1 -1 -2 -1 -0 0 0 -0 -1 -1 -1 -1 -1 -2 -2 -2 -2 -2 -2 -2 -2 -2 -2 -2 -2 -3 -3 -3 -3 -3 -3 -3 -3 -3 -3 -2 -2 -2 -2
-3 -3 -3 -3 -1 -0 -0 0 1 1 0 0 -0 -1 -1 -2 -2 -2 -2 -2 -2 -2 -3 -3 -3 -3 -3 -3 -3 -3 -3 -3 -3 -3 -3 -3 -3 -3 -3 -3 -3 -3 -3 -3
-3 -4 -4 -4 -3 -2 -0 0 1 0 0 -0 -1 -1 -1 -2 -2 -2 -3 -3 -3 -3 -3 -3 -3 -3 -3 -3 -3 -3 -3 -3 -3 -3 -3 -3 -3 -3 -3 -3 -3 -3 -4 -4
-2 -4 -4 -4 -3 -2 -1 0 0 -0 -1 -1 -1 -1 -2 -2 -2 -3 -3 -3 -3 -3 -3 -4 -3 -3 -3 -4 -3 -4 -4 -4 -4 -4 -4 -4 -4 -4 -4 -4 -4 -4 -4 -4
-3 -4 -3 -2 -2 -2 -1 0 -0 -1 -1 -1 -2 -2 -2 -2 -3 -3 -3 -3 -3 -3 -4 -4 -4 -4 -4 -4 -4 -4 -4 -4 -4 -4 -4 -4 -4 -4 -4 -4 -4 -4 -4 -4
Wind_Speed
1 3 1 4 5 4 3 3 5 5 3 3 6 9 9 5 3 4 5 4 4 5 5 3 2 1 1 1 1 2 2 3 2 1 2 2 3 3 3 3 3 4 4 3
3 1 4 3 2 2 3 3 4 5 3 3 5 9 8 5 4 4 5 5 5 4 3 3 2 1 1 2 2 3 3 3 3 3 3 3 3 3 3 3 4 4 4 4
3 3 2 1 1 2 3 4 4 4 5 3 3 6 4 3 2 2 3 2 2 2 3 3 3 3 2 3 3 3 4 4 3 3 2 2 1 2 2 2 3 4 4 4
1 3 1 0 1 1 4 4 4 3 2 4 0 4 6 4 3 3 3 2 2 2 2 2 3 3 3 4 4 3 3 3 3 2 3 3 3 3 4 3 3 3 4 4
1 2 1 1 3 1 4 3 2 1 1 3 2 3 7 2 3 4 3 3 3 2 2 2 3 3 4 4 3 3 3 3 3 3 3 3 3 3 3 2 2 3 2 3
1 2 1 2 2 1 2 3 3 3 2 3 4 5 6 3 5 3 3 3 3 3 2 2 3 3 4 4 4 3 3 4 3 3 3 3 4 4 3 2 3 2 2 2
4 3 3 2 2 3 3 4 4 4 2 5 2 4 7 5 3 3 3 3 3 2 2 3 4 4 5 5 5 4 4 5 4 3 3 4 4 4 3 3 3 3 2 2
1 4 3 2 1 1 0 4 4 3 4 5 3 5 6 3 2 1 1 1 2 3 3 3 3 4 5 6 6 5 5 5 4 4 4 4 4 3 3 3 3 3 3 3
2 4 3 2 1 2 2 2 3 4 1 4 5 6 6 2 3 2 2 2 3 4 4 4 4 4 5 5 6 5 5 5 4 4 4 4 4 3 3 3 2 3 2 2
4 3 4 3 2 1 2 3 4 3 1 4 6 5 4 5 5 3 3 3 4 4 5 5 5 5 5 5 5 4 4 5 4 4 3 3 3 4 3 2 3 3 2 2
2 2 4 3 2 3 1 1 2 2 3 3 4 6 3 5 4 3 3 3 3 4 5 6 6 6 6 5 4 4 4 4 4 3 2 2 3 3 2 2 2 2 2 2
2 3 3 5 3 1 3 4 4 3 4 3 3 7 4 2 2 2 3 3 4 4 4 5 6 6 6 5 5 4 4 4 4 3 2 2 1 1 1 1 1 1 2 2
3 3 1 4 3 2 1 2 3 3 2 3 4 7 3 4 3 3 3 4 5 5 5 5 6 6 6 6 5 4 4 3 4 3 2 2 1 1 1 1 1 1 1 1
4 3 5 7 5 3 4 4 3 4 4 5 8 10 9 8 7 7 6 5 5 5 4 5 6 6 6 5 5 4 4 4 4 4 3 2 2 2 1 1 1 1 1 1
3 3 5 7 6 4 7 8 7 8 9 9 9 10 12 9 8 7 6 6 5 5 5 5 6 6 5 6 6 5 4 4 4 4 3 3 2 2 2 1 1 1 1 2
2 2 2 4 4 6 9 10 10 10 9 11 12 14 10 7 5 5 6 5 5 6 6 6 6 6 6 5 5 5 4 4 3 3 4 3 3 3 3 2 2 2 2 1
3 3 1 4 4 4 8 9 9 6 7 7 11 11 7 6 6 6 6 5 5 5 6 6 5 5 5 5 4 4 4 3 3 3 4 3 3 3 3 3 3 2 2 2
5 4 2 2 3 5 7 3 6 7 7 8 8 7 6 7 6 5 4 3 4 5 5 5 5 5 5 4 4 3 3 2 3 3 3 3 3 3 3 3 3 3 2 2
5 5 3 2 3 8 7 3 4 5 7 7 7 7 6 5 4 4 3 2 4 4 4 4 4 5 4 3 3 3 2 2 3 3 3 3 2 3 3 3 3 3 3 3
2 3 3 3 3 6 6 1 2 3 5 5 5 5 4 2 3 5 3 4 4 4 3 3 4 4 3 3 2 2 2 2 3 3 3 2 2 2 2 3 3 3 3 3
3 3 5 5 6 8 5 1 3 3 6 3 3 4 4 4 6 5 4 4 4 4 4 3 3 3 3 3 2 2 2 3 3 3 3 2 2 2 2 2 2 3 3 3
8 6 6 5 5 8 4 5 6 6 3 2 3 4 4 5 5 5 4 4 3 4 4 3 3 3 3 2 2 2 3 3 3 3 3 3 3 2 2 2 2 2 2 3
8 9 6 9 9 4 4 6 5 3 3 3 3 4 4 4 4 4 4 3 3 3 4 3 3 3 3 3 1 2 3 3 3 3 3 3 3 2 2 2 2 2 2 2
5 4 4 6 9 7 6 5 4 3 4 4 4 4 4 4 5 4 4 3 3 3 3 3 2 2 3 3 3 2 3 2 2 2 3 3 3 3 3 2 2 2 2 2
6 6 5 7 7 5 5 5 5 4 3 3 3 3 4 4 4 4 4 4 3 3 3 2 2 2 3 3 3 3 2 2 2 2 2 3 3 2 3 3 3 3 2 2
6 8 7 8 7 5 6 4 3 4 4 4 3 4 4 4 4 4 4 4 3 3 2 2 2 2 3 3 3 3 2 1 1 2 2 2 2 2 2 2 4 6 5 6
Wind_Direction
51 83 189 227 214 211 205 226 260 266 287 296 255 267 276 278 261 248 252 254 253 256 263 276 293 277 268 292 287 266 270 266 268 266 261 265 262 257 253 253 257 257 246 231
55 248 251 246 237 235 232 252 273 290 306 290 278 282 278 258 244 233 235 245 249 280 311 311 317 314 270 264 270 275 278 268 251 246 240 241 245 245 241 248 261 254 239 225
166 248 272 211 309 272 253 229 245 272 320 315 311 301 273 275 248 268 262 251 269 277 287 303 322 316 294 278 270 273 277 274 261 263 268 273 282 284 262 255 248 249 237 230
253 293 292 182 260 233 263 244 248 263 319 288 358 287 274 266 284 292 297 304 303 308 304 303 315 318 307 285 279 274 276 280 276 254 247 233 241 255 259 254 252 254 236 231
285 331 354 274 271 243 245 286 279 258 212 290 248 223 280 291 283 291 298 297 296 295 302 307 311 303 309 306 290 277 281 279 273 252 241 239 243 254 269 271 268 252 237 231
285 317 328 277 290 246 291 17 31 52 79 274 226 196 274 253 253 276 287 302 304 310 312 316 325 324 318 319 317 294 279 272 269 262 255 249 253 256 267 265 264 256 239 230
336 326 339 354 360 5 50 71 21 358 346 257 249 210 251 257 253 229 243 267 298 319 330 327 331 323 318 318 316 312 285 273 271 264 258 254 251 243 248 251 260 262 245 249
333 297 305 333 195 224 234 135 153 215 250 286 296 247 261 273 298 274 230 260 330 339 339 322 312 309 310 311 307 304 297 274 266 263 260 255 253 239 247 250 261 251 244 237
187 264 305 301 303 151 140 177 168 148 262 278 276 286 303 304 337 10 18 10 345 334 332 324 317 314 306 302 299 294 297 292 281 270 258 246 245 247 254 257 256 249 251 251
163 257 294 315 22 2 140 140 98 133 200 271 289 279 274 293 296 320 337 334 326 330 331 329 327 319 311 305 304 302 294 293 282 277 256 263 245 247 244 242 241 239 245 248
138 190 301 338 203 214 149 131 138 153 181 200 275 274 250 254 260 268 285 303 311 318 323 329 326 321 319 321 318 314 311 312 304 288 279 273 257 244 239 246 247 224 224 229
149 139 260 263 270 262 191 185 159 174 239 215 237 272 288 285 280 276 288 303 308 310 318 324 326 328 329 327 323 315 313 315 310 291 291 293 279 238 233 247 254 235 227 234
139 126 356 334 323 335 258 214 183 163 161 203 222 266 308 355 345 323 305 303 306 313 320 329 336 334 330 327 327 319 319 322 324 323 327 337 340 306 274 269 264 255 245 234
124 157 193 216 234 217 255 249 210 176 203 234 237 262 289 306 305 306 305 299 299 301 315 330 334 330 329 327 327 328 333 337 339 343 345 352 350 334 297 280 266 280 274 249
118 208 238 256 263 248 251 252 232 220 221 229 251 257 271 276 276 284 289 296 304 307 319 326 326 325 326 331 333 336 339 344 346 349 353 349 349 352 349 353 355 324 303 310
122 197 267 281 268 266 270 257 241 239 237 244 263 271 270 273 277 283 288 291 293 299 309 315 318 322 322 328 330 334 339 343 349 348 344 347 357 4 4 359 13 8 339 311
157 153 183 271 308 324 274 243 217 218 219 215 242 257 285 288 282 277 282 284 282 291 303 306 308 312 310 313 318 324 327 339 353 351 346 350 2 9 3 355 14 11 349 341
160 157 180 269 8 251 251 233 200 214 243 232 247 267 275 271 278 279 269 271 287 295 299 302 306 312 311 314 320 326 337 355 356 350 347 354 10 11 1 358 6 356 348 345
168 160 167 183 253 276 285 251 181 201 262 235 240 266 283 298 310 285 269 285 281 287 290 293 298 306 309 310 316 336 346 359 357 348 346 354 7 11 358 360 355 349 354 350
127 147 165 182 222 248 257 250 153 121 277 250 221 252 274 316 297 279 294 312 310 313 309 311 316 318 314 311 323 346 348 1 350 340 335 336 359 18 359 352 348 350 354 348
163 179 198 206 234 263 255 202 127 179 258 263 221 235 236 228 241 272 297 307 306 308 312 321 322 320 311 316 333 346 353 348 333 335 341 358 6 9 358 0 352 353 355 355
183 184 198 183 216 253 204 150 190 228 262 241 231 229 239 253 273 284 288 294 306 313 320 327 329 327 330 337 354 349 342 331 338 350 359 4 3 0 5 13 357 0 1 2
203 196 194 200 220 249 194 208 233 224 239 244 234 247 242 257 270 284 288 289 296 299 307 321 326 331 342 341 355 339 322 334 351 3 3 2 2 4 2 7 2 359 359 358
239 192 200 245 257 253 249 251 258 228 230 245 242 246 236 248 264 279 283 292 298 295 300 317 329 336 336 338 343 319 315 338 3 5 358 358 6 5 5 360 356 350 340 343
219 181 209 249 267 287 262 234 239 240 239 250 257 244 242 247 262 264 273 279 283 293 299 305 303 304 309 323 330 327 327 349 3 355 356 356 360 0 0 358 351 340 329 329
198 188 196 230 224 211 250 242 220 223 244 250 259 278 264 239 249 259 265 265 266 272 286 300 297 296 303 318 321 322 327 345 12 2 359 353 353 354 358 0 1 4 0 1
Height
1494 1499 1501 1500 1498 1498 1498 1500 1500 1497 1493 1493 1491 1488 1484 1483 1482 1481 1480 1479 1478 1478 1478 1479 1478 1478 1478 1478 1477 1477 1476 1476 1475 1474 1474 1473 1472 1472 1472 1472 1472 1473 1473 1474
1499 1500 1497 1496 1496 1496 1497 1499 1500 1495 1492 1492 1491 1487 1482 1480 1479 1477 1477 1476 1476 1476 1475 1475 1475 1475 1474 1474 1474 1473 1472 1472 1472 1471 1470 1470 1469 1468 1468 1468 1468 1468 1469 1469
1498 1498 1495 1495 1496 1496 1497 1498 1498 1497 1494 1492 1492 1487 1481 1478 1476 1475 1475 1474 1474 1474 1473 1472 1472 1472 1471 1471 1470 1470 1469 1469 1468 1467 1467 1466 1466 1465 1464 1463 1463 1464 1465 1465
1499 1497 1496 1496 1496 1496 1498 1494 1494 1494 1498 1500 1496 1496 1482 1478 1476 1474 1473 1472 1472 1471 1471 1470 1470 1469 1468 1468 1467 1467 1466 1465 1464 1464 1463 1462 1461 1459 1459 1458 1458 1460 1461 1461
1499 1497 1496 1496 1496 1495 1496 1493 1494 1494 1498 1502 1498 1500 1484 1479 1476 1473 1472 1471 1470 1470 1469 1468 1467 1467 1466 1465 1464 1463 1462 1461 1461 1460 1459 1458 1457 1456 1455 1455 1455 1455 1456 1456
1499 1498 1497 1496 1495 1494 1494 1494 1496 1499 1502 1503 1495 1497 1486 1481 1475 1472 1471 1470 1469 1468 1467 1466 1465 1464 1463 1462 1461 1460 1459 1458 1458 1456 1455 1454 1453 1452 1451 1451 1450 1450 1450 1451
1502 1499 1497 1496 1496 1495 1496 1502 1509 1508 1509 1501 1492 1491 1484 1474 1471 1470 1470 1469 1467 1466 1465 1463 1462 1461 1460 1459 1457 1456 1455 1454 1453 1453 1452 1451 1450 1448 1447 1447 1447 1446 1446 1446
1506 1505 1499 1497 1497 1498 1499 1501 1511 1513 1512 1502 1493 1489 1479 1473 1470 1469 1468 1468 1466 1464 1463 1462 1460 1459 1457 1456 1454 1453 1452 1451 1450 1449 1448 1447 1447 1445 1445 1444 1443 1443 1442 1443
1509 1505 1499 1497 1496 1497 1499 1503 1503 1511 1514 1510 1496 1487 1477 1472 1470 1468 1468 1466 1465 1463 1462 1460 1459 1457 1455 1453 1451 1449 1448 1447 1447 1446 1445 1444 1444 1443 1442 1441 1440 1440 1439 1439
1505 1508 1502 1499 1497 1497 1498 1501 1507 1510 1510 1504 1496 1491 1482 1473 1470 1469 1468 1466 1465 1463 1461 1459 1457 1455 1452 1451 1449 1447 1446 1444 1443 1443 1442 1441 1440 1439 1438 1437 1437 1436 1436 1436
1504 1510 1506 1502 1501 1500 1500 1502 1504 1509 1509 1507 1502 1489 1475 1473 1470 1469 1468 1466 1465 1463 1460 1458 1456 1453 1450 1448 1446 1444 1443 1442 1440 1439 1438 1437 1436 1436 1435 1434 1433 1433 1432 1432
1504 1510 1511 1505 1499 1498 1498 1499 1503 1507 1508 1507 1505 1490 1472 1470 1468 1468 1467 1466 1464 1462 1460 1457 1454 1451 1448 1446 1444 1442 1440 1439 1438 1436 1435 1434 1433 1432 1431 1431 1430 1430 1429 1429
1503 1510 1512 1504 1504 1502 1500 1499 1501 1504 1507 1508 1503 1487 1471 1470 1469 1468 1467 1465 1463 1461 1458 1456 1453 1449 1447 1444 1442 1440 1438 1437 1436 1434 1432 1431 1430 1429 1428 1427 1427 1427 1426 1426
1501 1508 1509 1503 1498 1500 1500 1498 1499 1501 1505 1503 1494 1482 1473 1471 1469 1467 1466 1464 1462 1459 1457 1454 1451 1448 1445 1443 1441 1438 1437 1435 1433 1431 1430 1428 1427 1426 1426 1425 1424 1424 1423 1422
1501 1506 1505 1501 1498 1498 1495 1494 1494 1495 1493 1493 1483 1480 1471 1469 1468 1466 1464 1462 1460 1457 1455 1452 1449 1446 1444 1441 1439 1437 1435 1433 1431 1430 1428 1427 1426 1425 1424 1422 1422 1421 1421 1420
1501 1504 1504 1500 1495 1494 1492 1487 1487 1487 1486 1484 1479 1473 1466 1466 1465 1463 1461 1460 1457 1455 1453 1450 1448 1445 1442 1440 1438 1436 1434 1432 1430 1429 1427 1425 1424 1423 1421 1420 1420 1419 1419 1419
1503 1505 1506 1501 1498 1494 1488 1480 1480 1480 1478 1477 1475 1469 1465 1464 1462 1460 1458 1457 1455 1453 1451 1448 1446 1443 1441 1439 1437 1435 1433 1431 1429 1427 1426 1424 1423 1421 1420 1419 1418 1417 1417 1417
1501 1504 1506 1505 1502 1496 1476 1471 1472 1473 1472 1471 1468 1465 1463 1461 1459 1458 1456 1455 1453 1451 1449 1447 1444 1442 1439 1437 1435 1433 1432 1429 1428 1426 1425 1423 1421 1420 1419 1418 1417 1416 1416 1415
1496 1500 1505 1506 1502 1488 1474 1470 1470 1472 1469 1465 1464 1462 1461 1459 1457 1455 1454 1453 1451 1449 1447 1445 1442 1440 1437 1436 1434 1432 1430 1428 1426 1425 1423 1422 1421 1419 1418 1417 1416 1416 1415 1414
1496 1498 1502 1503 1497 1486 1469 1467 1466 1470 1468 1460 1460 1459 1459 1458 1459 1454 1451 1450 1448 1446 1444 1442 1440 1437 1435 1434 1432 1430 1428 1426 1425 1423 1422 1421 1420 1418 1417 1416 1415 1415 1414 1413
1497 1498 1499 1499 1496 1479 1466 1465 1467 1472 1464 1457 1456 1456 1456 1455 1454 1451 1449 1447 1445 1444 1442 1439 1437 1435 1434 1432 1430 1429 1427 1425 1424 1422 1421 1420 1418 1417 1416 1415 1415 1414 1413 1412
1488 1493 1495 1494 1492 1477 1462 1464 1465 1460 1456 1455 1454 1454 1453 1451 1450 1448 1446 1444 1442 1441 1439 1437 1435 1434 1432 1431 1429 1427 1426 1424 1423 1422 1420 1419 1417 1416 1416 1415 1414 1413 1412 1411
1479 1477 1477 1476 1469 1459 1457 1456 1455 1455 1454 1453 1452 1451 1450 1449 1447 1445 1443 1442 1440 1439 1437 1435 1434 1432 1431 1429 1428 1426 1425 1423 1422 1421 1419 1418 1417 1416 1415 1414 1413 1412 1411 1410
1471 1469 1470 1469 1459 1455 1454 1453 1453 1453 1452 1451 1450 1449 1448 1446 1444 1443 1441 1439 1438 1436 1435 1433 1432 1430 1429 1428 1427 1426 1424 1423 1421 1419 1418 1417 1416 1415 1414 1413 1412 1411 1410 1408
1462 1465 1465 1463 1455 1453 1450 1450 1450 1449 1449 1448 1447 1446 1445 1443 1441 1440 1438 1437 1435 1434 1433 1432 1430 1429 1428 1427 1426 1425 1423 1422 1420 1419 1417 1416 1415 1414 1413 1412 1411 1410 1409 1408
1455 1456 1458 1453 1448 1449 1447 1446 1447 1446 1445 1445 1444 1442 1441 1440 1438 1437 1436 1434 1433 1432 1431 1430 1429 1428 1427 1426 1425 1423 1422 1421 1419 1418 1417 1416 1414 1413 1412 1411 1410 1409 1409 1408